Home > Weather > Gaborone > Past weeks

Flag for Botswana Past Weather in Gaborone, Botswana — Yesterday and Last 2 Weeks

Now
57 °F

Sunny.


Feels Like: 54 °F
Forecast: 44 / 70 °F
Wind: 15 mph from Northeast

Location: Seretse Khama International Airport

Current Time: Jul 31, 2016 at 9:30:20 AM

Latest Report: Jul 31, 2016 at 9:00 AM


Visibility: 10 mi

Pressure: 30.15 "Hg (26.74 "Hg at 1009m altitude)

Humidity: 33%

Dew Point: 28 °F

Location of GaboroneLocation

Past Weather in Gaborone — Graph

°F

Gaborone Temperature Yesterday

Maximum temperature yesterday: 75 °F (at 3:00 PM)
Minimum temperature yesterday: 36 °F (at 5:00 AM)
Average temperature yesterday: 56 °F

High & Low Weather Summary for the Past Weeks

 TemperatureHumidityPressure
High81 °F (Jul 22, 2:00 PM)77% (Jul 25, 6:00 AM)30.48 "Hg (Jul 25, 6:00 AM)
Low30 °F (Jul 27, 6:00 AM)8% (Jul 27, 5:10 PM)29.92 "Hg (Jul 25, 4:00 PM)
Average56 °F35%30.19 "Hg
* Reported Jul 16 8:00 AM — Jul 31 8:00 AM, Gaborone, Weather by CustomWeather, © 2016

Note: Actual official high and low records may vary slightly from our data, if they occured in-between our weather recording intervals... More about our weather records

Advertising

Gaborone Weather History for the Previous 24 Hours

Scroll right to see more
 ConditionsComfort  
Time TempWeatherWind HumidityBarometerVisibility
8:00 AM
Sun, Jul 31
59 °FSunny.10 mph20%30.15 "Hg10 mi
7:00 AM48 °FSunny.10 mph37%30.12 "Hg10 mi
6:00 AM46 °FSunny.12 mph37%30.12 "Hg10 mi
5:00 AM48 °FClear.6 mph34%30.12 "Hg10 mi
4:00 AM50 °FPassing clouds.6 mph32%30.12 "HgN/A
3:00 AM48 °FPassing clouds.6 mph34%30.09 "HgN/A
11:00 PM
Sat, Jul 30
57 °FPassing clouds.6 mph25%30.12 "HgN/A
10:00 PM54 °FClear.6 mph26%30.12 "Hg10 mi
9:00 PM57 °FPassing clouds.8 mph23%30.12 "HgN/A
8:00 PM61 °FPassing clouds.5 mph19%30.09 "HgN/A
7:00 PM64 °FClear.7 mph16%30.09 "Hg10 mi
6:00 PM68 °FClear.3 mph14%30.09 "Hg10 mi
5:00 PM75 °FPassing clouds.7 mph11%30.09 "HgN/A
4:00 PM75 °FPassing clouds.8 mph12%30.09 "HgN/A
3:00 PM75 °FPassing clouds.9 mph12%30.09 "HgN/A
2:00 PM73 °FPassing clouds.6 mph14%30.12 "HgN/A
1:00 PM72 °FPassing clouds.6 mph19%30.15 "HgN/A
12:00 PM70 °FPassing clouds.7 mph20%30.21 "HgN/A
11:00 AM64 °FPassing clouds.6 mph26%30.24 "HgN/A
10:00 AM61 °FPassing clouds.3 mph29%30.24 "HgN/A
9:00 AM55 °FPassing clouds.3 mph36%30.21 "HgN/A
Weather by CustomWeather, © 2016

See weather overviewHow to use our weather pages